Location: Laverne
(36.7100°N, 99.8930°W)
Time: 05:12:45
(UTC-06:00)

Cosmos 1758 Rocket - Pass Details

Date: 19 October 2017
Orbit: 601 x 637 km, 82.5° (Epoch: 24 November)

Event Time Altitude Azimuth Distance (km) Brightness Sun altitude
Exits shadow 05:55:28 81° 303° (WNW) 649 3.4 -23.8°
Drops below altitude 10° 05:59:53 10° 5° (N) 2,031 6.3 -23.0°
Sets 06:02:09 0° 6° (N) 2,944 7.2 -22.5°
